This demonstration page uses our WeatherBlox Daily Observations layout. Learn more.

Left ArrowRight Arrow

Hourly Observations for August 15, 2016

Temp ( °F °C ) Dew Point ( °F °C ) Humidity (%) Winds ( mph kmh ) Pressure ( in mb ) Visibility ( mi km ) Precip ( " mm )
12:15 am 00:15 Cloudy 70 21 68 20 94 94 Calm 30.15 1021 10 16.0934 N/A
12:34 am 00:34 Cloudy 70 21 68 20 94 94 Calm 30.15 1021 10 16.0934 N/A
12:54 am 00:54 Cloudy 70 21 70 21 100 100 Calm 30.15 1021 7 11.26538 N/A
1:15 am 01:15 Cloudy 70 21 70 21 100 100 Calm 30.15 1021 7 11.26538 N/A
1:34 am 01:34 Cloudy 70 21 68 20 94 94 Calm 30.15 1021 4 6.43736 N/A
1:54 am 01:54 Cloudy 70 21 68 20 94 94 Calm 30.15 1021 5 8.0467 N/A
2:15 am 02:15 Cloudy 70 21 68 20 94 94 SSE 3 6 30.15 1021 5 8.0467 N/A
2:34 am 02:34 Cloudy 70 21 70 21 100 100 Calm 30.15 1021 5 8.0467 N/A
2:54 am 02:54 Cloudy 70 21 68 20 94 94 Calm 30.12 1020 5 8.0467 N/A
3:15 am 03:15 Mostly Cloudy 70 21 68 20 94 94 Calm 30.12 1020 5 8.0467 N/A
3:34 am 03:34 Partly Cloudy 68 20 68 20 100 100 Calm 30.12 1020 5 8.0467 N/A
3:54 am 03:54 Partly Cloudy 68 20 68 20 100 100 Calm 30.12 1020 4 6.43736 N/A
4:15 am 04:15 Partly Cloudy 68 20 68 20 100 100 Calm 30.12 1020 3 4.82802 N/A
4:34 am 04:34 Mostly Cloudy 68 20 68 20 100 100 Calm 30.12 1020 3 4.82802 N/A
4:54 am 04:54 Cloudy 68 20 68 20 100 100 E 3 6 30.12 1020 4 6.43736 N/A
5:15 am 05:15 Cloudy 68 20 68 20 100 100 Calm 30.12 1020 5 8.0467 N/A
5:34 am 05:34 Cloudy 68 20 68 20 100 100 Calm 30.12 1020 7 11.26538 N/A
5:54 am 05:54 Mostly Cloudy 68 20 68 20 100 100 SE 3 6 30.12 1020 7 11.26538 N/A
6:14 am 06:14 Mostly Cloudy 70 21 68 20 94 94 SE 3 6 30.12 1020 7 11.26538 N/A
6:34 am 06:34 Cloudy 70 21 68 20 94 94 SE 3 6 30.12 1020 7 11.26538 N/A
6:55 am 06:55 Cloudy 70 21 68 20 94 94 SE 3 6 30.15 1021 7 11.26538 N/A
7:14 am 07:14 Cloudy 70 21 68 20 94 94 SE 5 7 30.15 1021 7 11.26538 N/A
7:34 am 07:34 Cloudy 70 21 68 20 94 94 SE 5 7 30.15 1021 7 11.26538 N/A
7:55 am 07:55 Cloudy 70 21 68 20 94 94 SE 5 7 30.15 1021 5 8.0467 N/A
8:14 am 08:14 Cloudy 70 21 68 20 94 94 SE 5 7 30.15 1021 5 8.0467 N/A
8:34 am 08:34 Cloudy 70 21 68 20 94 94 SSE 5 7 30.15 1021 7 11.26538 N/A
8:54 am 08:54 Cloudy 70 21 70 21 100 100 SSE 3 6 30.15 1021 7 11.26538 N/A
9:14 am 09:14 Cloudy 70 21 70 21 100 100 SSE 5 7 30.15 1021 7 11.26538 N/A
9:35 am 09:35 Cloudy 70 21 70 21 100 100 SE 7 11 30.15 1021 7 11.26538 N/A
9:54 am 09:54 Cloudy 70 21 70 21 100 100 SE 6 9 30.12 1020 7 11.26538 N/A
10:14 am 10:14 Cloudy 70 21 70 21 100 100 SE 6 9 30.15 1021 7 11.26538 N/A
10:35 am 10:35 Cloudy 70 21 70 21 100 100 SE 7 11 30.15 1021 7 11.26538 N/A
10:54 am 10:54 Cloudy 70 21 70 21 100 100 SE 7 11 30.15 1021 7 11.26538 N/A
11:14 am 11:14 Cloudy 70 21 70 21 100 100 SE 7 11 30.15 1021 4 6.43736 N/A
11:35 am 11:35 Cloudy 70 21 70 21 100 100 SSE 7 11 30.18 1022 2.5 4.02335 N/A
11:54 am 11:54 Cloudy 70 21 70 21 100 100 SE 6 9 30.15 1021 3 4.82802 N/A
12:14 pm 12:14 Cloudy 70 21 70 21 100 100 SE 7 11 30.15 1021 5 8.0467 N/A
12:35 pm 12:35 Cloudy 72 22 70 21 94 94 SE 5 7 30.15 1021 5 8.0467 N/A
12:54 pm 12:54 Cloudy 72 22 70 21 94 94 SE 5 7 30.15 1021 5 8.0467 N/A
1:14 pm 13:14 Cloudy 72 22 70 21 94 94 SE 6 9 30.15 1021 5 8.0467 N/A
1:34 pm 13:34 Cloudy 72 22 70 21 94 94 SE 5 7 30.15 1021 1.25 2.011675 N/A
1:54 pm 13:54 Cloudy 72 22 70 21 94 94 ESE 5 7 30.15 1021 5 8.0467 N/A
2:15 pm 14:15 Cloudy 72 22 72 22 100 100 ESE 8 13 30.09 1019 7 11.26538 N/A
2:34 pm 14:34 Cloudy 72 22 72 22 100 100 SE 6 9 30.09 1019 10 16.0934 N/A
2:54 pm 14:54 Mostly Cloudy 73 23 72 22 94 94 ESE 6 9 30.09 1019 10 16.0934 N/A
3:15 pm 15:15 Mostly Cloudy 73 23 72 22 94 94 ESE 8 13 30.09 1019 10 16.0934 N/A
3:34 pm 15:34 Mostly Cloudy 73 23 72 22 94 94 SE 7 11 30.06 1018 10 16.0934 N/A
3:54 pm 15:54 Mostly Cloudy 73 23 72 22 94 94 SE 7 11 30.06 1018 10 16.0934 N/A
4:15 pm 16:15 Partly Cloudy 73 23 72 22 94 94 ESE 7 11 30.03 1017 10 16.0934 N/A
4:34 pm 16:34 Partly Cloudy 75 24 72 22 89 89 ESE 7 11 30.03 1017 10 16.0934 N/A
4:54 pm 16:54 Partly Cloudy 75 24 73 23 94 94 SE 8 13 30.03 1017 10 16.0934 N/A
5:15 pm 17:15 Partly Cloudy 75 24 73 23 94 94 SE 8 13 30.03 1017 10 16.0934 N/A
5:34 pm 17:34 Partly Cloudy 75 24 73 23 94 94 SE 7 11 30.03 1017 10 16.0934 N/A
5:54 pm 17:54 Partly Cloudy 75 24 73 23 94 94 SE 9 15 30.03 1017 10 16.0934 N/A
6:15 pm 18:15 Mostly Cloudy 75 24 73 23 94 94 SE 8 13 30.03 1017 10 16.0934 N/A
6:34 pm 18:34 Cloudy 75 24 73 23 94 94 S 7 11 30.03 1017 10 16.0934 N/A
6:54 pm 18:54 Mostly Cloudy 75 24 73 23 94 94 SE 9 15 30.03 1017 10 16.0934 N/A
7:15 pm 19:15 Sunny 75 24 73 23 94 94 SSE 7 11 30.03 1017 10 16.0934 N/A
7:34 pm 19:34 Partly Cloudy 75 24 73 23 94 94 SE 8 13 30 1016 10 16.0934 N/A
7:54 pm 19:54 Sunny 75 24 73 23 94 94 SE 8 13 30 1016 10 16.0934 N/A
8:14 pm 20:14 Partly Cloudy 75 24 73 23 94 94 SE 7 11 30 1016 10 16.0934 N/A
8:34 pm 20:34 Partly Cloudy 75 24 73 23 94 94 SE 7 11 30 1016 10 16.0934 N/A
8:54 pm 20:54 Partly Cloudy 75 24 73 23 94 94 SE 6 9 30 1016 10 16.0934 N/A
9:14 pm 21:14 Partly Cloudy 75 24 73 23 94 94 SE 8 13 30 1016 10 16.0934 N/A
9:34 pm 21:34 Mostly Cloudy 75 24 72 22 89 89 SE 7 11 30 1016 10 16.0934 N/A
9:55 pm 21:55 Cloudy 75 24 72 22 89 89 SSE 9 15 30 1016 10 16.0934 N/A
10:14 pm 22:14 Mostly Cloudy 75 24 72 22 89 89 SSE 9 15 30.03 1017 10 16.0934 N/A
10:34 pm 22:34 Mostly Cloudy 73 23 72 22 94 94 SSE 10 17 30 1016 7 11.26538 N/A
10:54 pm 22:54 Cloudy 73 23 72 22 94 94 S 8 13 30.03 1017 10 16.0934 N/A
11:14 pm 23:14 Mostly Cloudy 73 23 72 22 94 94 S 8 13 30 1016 10 16.0934 N/A
11:35 pm 23:35 Partly Cloudy 75 24 72 22 89 89 S 12 19 30 1016 10 16.0934 N/A
11:54 pm 23:54 Clear 73 23 72 22 94 94 S 8 13 30 1016 10 16.0934 N/A

Powered by AerisWeather